SL-14 DEB, 45291

Orbit data source: Space-Track

SL-14 DEB, 45291 is space debris in LEO originally from a launch on Thu, 15 Aug 1991 UTC launched from the Plesetsk Missile And Space Complex (PKMTR). Debris objects in space refer to the collection of defunct objects orbiting the Earth. Examples of debris include non-operational satellites, rocket bodies, and fragments generated from explosions, collisions, or faulty payload assembly.

Loading next visibility...
Identifier
45291, 1991-056AD
Orbit
LEO
Last TLE update
1 day ago
Origin
Manufacturer
Unknown
Mission
Spacecraft
Bus & Motor
Unknown
Mass
Unknown
Launch date (UTC)
1991-08-15 (34 years ago)
Launch vehicle
Unknown
Launch site
Plesetsk Missile And Space Complex (PKMTR)
Object type
Payload
Rocket body
Debris
Shape & HBR
Unknown
Radar Cross Section
Small (<0.1 m²)

Expand to show TLE details & history

TLE from 1 day ago
0 SL-14 DEB
1 45291U 91056AD  25128.12167461 -.00000370  00000-0 -10857-2 0  9993
2 45291  82.5462  80.6732 0034559 237.4694 122.3084 13.10688968249507
Epoch: 2025-05-08T02:55Z
Definitive object data (Epoch: 2025-05-08T02:55:12.686Z)
Latitude
-0.00006°
Longitude
170.67362°
Altitude
1,237.396 km
Speed
7.229 km/s
True Right ascension
05h 22m 41s
True Declination
0° 00' 00"
Sunlit
Object was in daylight at TLE epoch
Visualization TLE readout
Latitude
3.4525°
Longitude
170.32225°
Altitude
1,239.366 km
Speed
7.228 km/s
Apparent Right ascension
04h 16m 31s
Apparent Declination
-17° 08' 34"
Sunlit
Object is in daylight
Visualization observer readout
Local Sidereal Time
14:33:57
Azimuth
308.309° NW
Elevation
-58.196°
Doppler factor
1
Orbital elements
Apogee altitude
1,243.999 km
Perigee altitude
1,191.498 km
Semi-major axis
7,595.886 km
Eccentricity
0.0034559
Inclination
82.5462°
RAAN
80.6732°
Arg. of periapsis
237.4694°
True anomaly
122.64233°
Mean anomaly
122.3084°
Eccentric anomaly
122.47544°
Mean motion
3.2785 °/min
BSTAR
-0.0010857
Orbital period
109.81 mins
Loading maneuver chart data...
Loading SW <> Apogee altitude chart data...
Loading historical data...
Loading historical data...
Loading historical data...
Loading historical data...
Loading historical data...
Loading historical data...
Loading historical data...

SL-14 DEB Visibility forecast

Observer location: undefined°, undefined°

Span
Click to sort rows by Start time (UTC) header in descending order
Start Az.
Max El. time (UTC)
Max El. Az.
Max El.
End time (UTC)
End Az.
9 mins2025-05-09 07:01:07.720Z28.067° NE2025-05-09 07:05:07.720Z63.955° ENE18.527°2025-05-09 07:10:07.720Z108.268° ESE
13 mins2025-05-09 08:51:07.720Z347.81° N2025-05-09 08:57:07.720Z246.867° WSW44.043°2025-05-09 09:04:07.720Z181.733° SSW
13 mins2025-05-09 21:10:07.720Z173.907° S2025-05-09 21:16:07.720Z70.346° E43.312°2025-05-09 21:23:07.720Z11.941° NNE
9 mins2025-05-09 23:03:07.720Z255.002° W2025-05-09 23:07:07.720Z292.319° WNW19.924°2025-05-09 23:12:07.720Z336.816° NNW
|